Regional Weather Roundup
Issued by NWS

Home | Current Version | Previous Version | Graphics & Text | Print | Product List | Glossary On
Versions: 1 2 3 4 5 6 7 8 9 10 11 12 13 14 15 16 17 18 19 20 21 22 23 24 25 26 27 28 29 30 31 32 33 34 35 36 37 38 39 40 41 42 43 44 45 46 47 48 49 50
751
ASUS43 KIND 221059
RWRIN

WEATHER ROUNDUP FOR INDIANA
NATIONAL WEATHER SERVICE INDIANAPOLIS IN
700 AM EDT SUN APR 22 2018

NOTE: "FAIR" INDICATES FEW OR NO CLOUDS BELOW 12,000 FEET WITH NO
SIGNIFICANT WEATHER AND/OR OBSTRUCTIONS TO VISIBILITY.

* - STATION DOES NOT REPORT WEATHER SUCH AS PRECIPITATION OR FOG.

+ - STATION NOT QUALITY CONTROLLED BY THE NATIONAL WEATHER SERVICE.
    USE DATA WITH CAUTION...ESPECIALLY DEWPOINT AND RELATIVE
    HUMIDITY OBSERVATIONS.

INZ001>003-010>013-019-020-221200-
NORTHWEST INDIANA

CITY           SKY/WX    TMP DP  RH WIND       PRES   REMARKS
GARY /AIRPORT/ CLOUDY    50  25  37 NE7       30.33F
KNOX *+        FAIR      43  28  56 SE5       30.33R
MONTICELLO +   FAIR      44  25  48 CALM      30.32S
RENSSELAER +   FAIR      41  27  56 E6        30.33R
VALPARAISO     FAIR      44  29  55 SE5       30.34R

$$

LMZ046-743>745-221200-
SOUTHERN LAKE MICHIGAN

STATION/POSITION TIME  TEMP    WIND        PRES    WAVE
                       AIR SEA DIR/SP/G            HT
                 (UTC) (F)     (DEG/KT/KT) (MB)    (FT)
BURNS HARBOR     1040   46      60/  9/ 12 1027.4F
MICHIGAN CITY    1030   47      80/  6/  8   N/A

$$

INZ004-005-014>016-021>024-221200-
NORTH CENTRAL INDIANA

CITY           SKY/WX    TMP DP  RH WIND       PRES   REMARKS
GOSHEN         FAIR      39  30  70 CALM      30.36R
ROCHESTER +    FAIR      45  23  42 E5        30.34R
SOUTH BEND     FAIR      43  27  53 E3        30.37R
WARSAW +       FAIR      41  23  48 E7        30.34F

$$

INZ006>009-017-018-025>027-221200-
NORTHEAST INDIANA

CITY           SKY/WX    TMP DP  RH WIND       PRES   REMARKS
FORT WAYNE     MOCLDY    41  24  51 NE8       30.35S

$$

INZ028-029-035-036-043>045-051>053-221200-
WEST CENTRAL INDIANA

CITY           SKY/WX    TMP DP  RH WIND       PRES   REMARKS
LAFAYETTE      FAIR      45  26  47 NE10      30.31S
TERRE HAUTE    FAIR      48  30  49 NE8       30.26R

$$

INZ030>032-037>040-046>048-054>057-064-065-221200-
CENTRAL INDIANA

CITY           SKY/WX    TMP DP  RH WIND       PRES   REMARKS
COLUMBUS       MOCLDY    43 N/A N/A N6        30.27
GREENWOOD *+   FAIR      45  26  47 NE7       30.28F
INDIANAPOLIS   CLOUDY    47  24  40 NE10      30.28S
-EAGLE CREEK   FAIR      47  24  40 NE6       30.28S
KOKOMO +       FAIR      41  28  60 E5        30.34R
MT COMFORT *+  FAIR      43  34  70 NE6       30.29F
SHELBYVILLE    MOCLDY    47  28  47 NE9       30.28R
ZIONSVILLE +   FAIR      42  27  54 NE6       30.30F

$$

INZ033-034-041-042-049-050-058-059-221200-
EAST CENTRAL INDIANA

CITY           SKY/WX    TMP DP  RH WIND       PRES   REMARKS
MUNCIE         FAIR      44  25  47 E5        30.33R
RICHMOND +     MOCLDY    39  30  70 NE10      30.30S WCI  32

$$

INZ060-061-067>069-081>083-085>088-221200-
SOUTHWEST INDIANA

CITY           SKY/WX    TMP DP  RH WIND       PRES   REMARKS
EVANSVILLE     MOCLDY    53  36  52 N6        30.20S
HUNTINGBURG +  FAIR      54  28  36 E8        30.21R

$$

INZ062-063-066-070>080-084-089>092-221200-
SOUTH CENTRAL AND SOUTHEAST INDIANA

CITY           SKY/WX    TMP DP  RH WIND       PRES   REMARKS
BLOOMINGTON    FAIR      49  27  42 E7        30.24S
FRENCH LICK *+ FAIR      50  19  29 NE9       30.22R
MADISON *+     CLOUDY    50  25  37 E7        30.28S
SEYMOUR +      FAIR      48  32  53 NE3       30.26S

$$





USA.gov is the U.S. government's official web portal to all federal, state and local government web resources and services.